CSS (MENGTIAN)

Last updated on Sun Nov 02 2025 00:02:11 GMT+0000 (Coordinated Universal Time)

1 54216U 22143A 25305.66377233 .00031710 00000+0 38072-3 0 9996 2 54216 41.4666 266.1848 0006787 305.6533 54.3673 15.60184648158640
UTC large
Height (km)
Speed (km/s)
/
Latitude / Longitude
Inclination (degrees)
Orbital Period (minutes)
Azimuth
Elevation
Range (km)
Doppler Factor

Next 0 passes for location: London (51.5072 / 0.1276)

Sorry there are no passes over London.